#timestamp,LO_Frequency,Hit,StdDev 
1523934015.4,286047001.6,N
1523934035.2,286047002.1,N
1523934055.0,286046999.8,N
1523934055.9,286046999.8,N
1523934075.8,286046999.9,N
1523934095.6,286047000.3,N
1523934115.4,286046999.8,N
1523934135.3,286046999.8,N
1523934155.1,286047002.3,N
1523934175.9,286047000.0,N
1523934195.7,286047001.4,N
1523934215.5,286047002.5,N
1523934235.4,286047002.0,N
1523934255.2,286047001.7,N
1523934275.0,286047002.5,N
1523934276.0,286047002.5,N
1523934295.8,286047000.8,N
1523934315.6,286047001.0,N
1523934335.5,286047001.1,N
1523934355.3,286047002.6,N
1523934375.1,286047000.1,N
1523934395.9,286046998.7,N
1523934415.7,286047000.4,N
1523934435.6,286047002.3,N
1523934455.4,286047000.6,N
1523934475.2,286046999.7,N
1523934495.1,286047002.7,N
1523934496.0,286047002.7,N
1523934515.8,286047000.5,N
1523934535.6,286047001.1,N
1523934555.5,286046999.6,N
1523934575.3,286046999.5,N
1523934595.2,286046998.4,N
1523934615.9,286046998.9,N
1523934635.7,286046998.7,N
1523934655.6,286046999.8,N
1523934675.4,286047002.5,N
1523934695.3,286047002.2,N
1523934715.1,286047002.7,N
1523934716.0,286047002.7,N
1523934735.8,286047000.3,N
1523934755.7,286047002.1,N
1523934775.5,286047002.5,N
1523934795.4,286046999.7,N
1523934815.2,286047000.8,N
1523934835.0,286046998.7,N
1523934835.9,286046998.7,N
1523934855.8,286046998.8,N
1523934875.6,286046998.3,N
1523934895.4,286046998.4,N
1523934915.3,286047000.0,N
1523934935.1,286046998.1,N
1523934955.9,286047000.6,N
1523934975.7,286047000.5,N
1523934995.5,286046998.1,N
1523935015.4,286046996.6,N
1523935035.2,286047000.8,N
1523935055.1,286047000.2,N
1523935056.0,286047000.2,N
1523935075.8,286046999.9,N
1523935095.6,286047000.4,N
1523935115.5,286047000.9,N
1523935135.3,286046999.5,N
1523935155.1,286047000.9,N
1523935175.9,286046997.0,N
1523935195.7,286046999.6,N
1523935215.6,286047000.9,N
1523935235.4,286046996.5,N
1523935255.2,286046999.6,N
1523935275.1,286046998.9,N
1523935276.0,286046998.9,N
1523935295.8,286046999.5,N
1523935315.6,286046996.8,N
1523935335.5,286046997.5,N
1523935355.3,286046997.4,N
1523935375.2,286046997.8,N
1523935395.9,286046996.5,N
1523935415.7,286046998.4,N
1523935435.6,286046999.5,N
1523935455.4,286046998.0,N
1523935475.2,286046998.0,N
1523935495.1,286046999.1,N
1523935496.0,286046999.1,N
1523935515.8,286046996.7,N
1523935535.7,286046996.6,N
1523935555.5,286046999.6,N
1523935575.3,286046997.0,N
1523935595.2,286046996.6,N
1523935615.0,286046997.5,N
1523935615.9,286046997.5,N
1523935635.8,286046995.4,Y
1523935655.6,286046999.6,P
1523935675.4,286046998.1,P
1523935695.3,286046999.2,N
1523935715.1,286046998.6,N
1523935735.8,286046999.6,N
1523935755.7,286046999.2,N
1523935775.5,286046998.9,N
1523935795.4,286047000.8,N
1523935815.2,286047002.8,Y
1523935835.0,286047001.0,P
1523935835.9,286047001.0,N
1523935855.8,286046998.4,N
1523935875.6,286046999.0,N
1523935895.5,286046999.1,N
1523935915.3,286047000.9,N
1523935935.1,286047002.2,N
1523935955.9,286047001.5,N
1523935975.7,286047001.6,N
1523935995.5,286047004.2,Y
1523936015.4,286047001.4,P
1523936035.2,286046999.9,N
1523936055.1,286046999.8,N
1523936056.0,286046999.8,N
1523936075.8,286047001.9,Y
1523936095.6,286047004.2,P
1523936115.5,286047003.0,N
1523936135.3,286047002.0,N
1523936155.2,286046999.8,N
1523936175.9,286047001.9,N
1523936195.7,286047001.8,N
1523936215.6,286047002.3,N
1523936235.4,286046999.7,N
1523936255.2,286047002.8,N
1523936275.1,286047000.0,N
1523936276.0,286047000.0,N
1523936295.8,286047002.3,N
1523936315.7,286047002.2,N
1523936335.5,286047002.1,N
1523936385.3,286047004.3,E
1523936395.3,286047000.2,N
1523936415.1,286046997.3,P
1523936435.8,286046997.0,N
1523936455.7,286046996.8,N
1523936475.5,286046999.4,N
1523936495.4,286046996.6,N
1523936515.2,286046996.8,N
1523936535.0,286046996.8,N
1523936535.9,286046996.8,N
1523936555.8,286046999.2,N
1523936575.6,286046999.1,N
1523936595.4,286046999.1,N
1523936615.3,286046998.8,N
1523936635.1,286046999.5,N
1523936655.9,286046996.8,N
1523936675.7,286046995.3,Y
1523936695.5,286046996.6,P
1523936715.4,286046998.4,N
1523936735.2,286046999.0,N
1523936755.0,286046997.4,N
1523936756.0,286046997.4,Y
1523936775.8,286047000.6,P
1523936795.6,286046999.0,N
1523936815.5,286046998.8,N
1523936835.3,286046999.1,N
1523936855.1,286046996.7,Y
1523936875.9,286046995.5,P
1523936895.7,286046997.6,N
1523936915.6,286046995.3,P
1523936935.4,286046995.3,Y
1523936955.2,286046998.5,P
1523936975.1,286046999.1,N
1523936976.0,286046999.1,N
1523936995.8,286046999.2,N
1523937015.7,286046997.4,N
1523937035.5,286046996.7,Y
1523937055.3,286046999.0,P
1523937075.2,286046998.8,P
1523937095.0,286046998.1,P
1523937095.9,286046998.1,Y
1523937115.8,286047004.0,P
1523937135.6,286047002.0,N
1523937155.4,286047004.1,N
1523937175.3,286047003.4,N
1523937195.1,286047003.2,N
1523937215.8,286047004.1,N
1523937235.7,286047003.5,N
1523937255.5,286047004.3,N
1523937275.4,286047005.9,Y
1523937295.2,286047000.3,P
1523937315.0,286047002.7,N
1523937315.9,286047002.7,N
1523937335.8,286047004.0,Y
1523937355.6,286046999.7,P
1523937375.5,286047004.0,P
1523937395.3,286047004.4,N
1523937415.1,286047002.1,N
1523937435.9,286047002.8,N
1523937455.7,286046999.7,N
1523937475.5,286046999.8,N
1523937495.4,286047002.2,N
1523937515.2,286047001.4,N
1523937535.1,286047001.6,N
1523937536.0,286047001.6,N
1523937555.8,286046999.7,N
1523937575.6,286047001.4,N
1523937595.5,286047002.2,N
